• In Italy
  • List of Countries
  • For 7 days
  • Water Temperature
  • Satellite Maps
  • Weather Map
  • Weather Widgets
  • user-avatar
    Login

    Hourly Weather Hajfa

    Today, 19 November, Sunday

    Time Temperature Precipitation Wind Pressure Humidity
    00:00 +24°C° 0 mm 3 mps 755 mmHg 49%
    01:00 +22°C° 0 mm 3 mps 755 mmHg 54%
    02:00 +22°C° 0 mm 4 mps 755 mmHg 58%
    03:00 +21°C° 0.1 mm 4 mps 755 mmHg 63%
    04:00 +21°C° 0.1 mm 4 mps 755 mmHg 67%
    05:00 +21°C° 0.1 mm 4 mps 756 mmHg 72%
    06:00 +21°C° 0 mm 4 mps 756 mmHg 72%
    07:00 +22°C° 0 mm 4 mps 756 mmHg 73%
    08:00 +22°C° 0 mm 3 mps 756 mmHg 72%
    09:00 +24°C° 0 mm 3 mps 757 mmHg 69%
    10:00 +24°C° 0 mm 3 mps 757 mmHg 65%
    11:00 +25°C° 0 mm 3 mps 757 mmHg 62%
    12:00 +25°C° 0 mm 4 mps 757 mmHg 61%
    13:00 +25°C° 0 mm 4 mps 757 mmHg 60%
    14:00 +25°C° 0 mm 4 mps 757 mmHg 58%
    15:00 +23°C° 0 mm 4 mps 757 mmHg 61%
    16:00 +24°C° 0 mm 3 mps 757 mmHg 63%
    17:00 +22°C° 0 mm 3 mps 757 mmHg 65%
    18:00 +21°C° 0 mm 3 mps 757 mmHg 68%
    19:00 +21°C° 0 mm 2 mps 757 mmHg 70%
    20:00 +20°C° 0 mm 2 mps 758 mmHg 72%
    21:00 +20°C° 0 mm 2 mps 758 mmHg 73%
    22:00 +20°C° 0 mm 2 mps 758 mmHg 74%
    23:00 +20°C° 0 mm 1 mps 758 mmHg 75%

    Tomorrow, 20 November, Monday

    Time Temperature Precipitation Wind Pressure Humidity
    00:00 +20°C° 0 mm 1 mps 758 mmHg 76%
    01:00 +20°C° 0 mm 1 mps 758 mmHg 76%
    02:00 +20°C° 0 mm 1 mps 758 mmHg 77%
    03:00 +19°C° 0 mm 1 mps 758 mmHg 77%
    04:00 +19°C° 0 mm 1 mps 758 mmHg 78%
    05:00 +18°C° 0 mm 2 mps 757 mmHg 78%
    06:00 +19°C° 0 mm 2 mps 757 mmHg 75%
    07:00 +19°C° 0 mm 2 mps 758 mmHg 72%
    08:00 +20°C° 0 mm 3 mps 758 mmHg 69%
    09:00 +21°C° 0 mm 3 mps 758 mmHg 64%
    10:00 +22°C° 0 mm 3 mps 757 mmHg 59%
    11:00 +22°C° 0 mm 4 mps 757 mmHg 55%
    12:00 +23°C° 0.2 mm 5 mps 757 mmHg 53%
    13:00 +23°C° 0.2 mm 5 mps 757 mmHg 52%
    14:00 +23°C° 0.2 mm 6 mps 756 mmHg 51%
    15:00 +22°C° 0.4 mm 6 mps 756 mmHg 57%
    16:00 +21°C° 0.4 mm 5 mps 756 mmHg 62%
    17:00 +20°C° 0.4 mm 5 mps 756 mmHg 68%
    18:00 +20°C° 0.9 mm 5 mps 756 mmHg 69%
    19:00 +20°C° 0.9 mm 5 mps 756 mmHg 71%
    20:00 +19°C° 0.9 mm 5 mps 756 mmHg 73%
    21:00 +19°C° 1.1 mm 5 mps 756 mmHg 73%
    22:00 +19°C° 1.1 mm 5 mps 756 mmHg 73%
    23:00 +19°C° 1.1 mm 5 mps 756 mmHg 73%

    Day after tomorrow, 21 November, Tuesday

    Time Temperature Precipitation Wind Pressure Humidity
    00:00 +19°C° 0.6 mm 6 mps 755 mmHg 73%
    01:00 +17°C° 0.6 mm 6 mps 755 mmHg 73%
    02:00 +17°C° 0.6 mm 7 mps 755 mmHg 73%
    03:00 +17°C° 1 mm 7 mps 755 mmHg 73%
    04:00 +17°C° 1 mm 8 mps 754 mmHg 73%
    05:00 +17°C° 1 mm 8 mps 754 mmHg 74%
    06:00 +18°C° 1.2 mm 9 mps 754 mmHg 73%
    07:00 +18°C° 1.2 mm 9 mps 754 mmHg 73%
    08:00 +18°C° 1.2 mm 10 mps 755 mmHg 73%
    09:00 +18°C° 1.1 mm 10 mps 754 mmHg 73%
    10:00 +18°C° 1.1 mm 10 mps 754 mmHg 73%
    11:00 +18°C° 1.1 mm 11 mps 754 mmHg 73%
    12:00 +18°C° 0.2 mm 11 mps 754 mmHg 68%
    13:00 +18°C° 0.2 mm 11 mps 754 mmHg 63%
    14:00 +18°C° 0.2 mm 11 mps 754 mmHg 58%
    15:00 +18°C° 0.2 mm 10 mps 754 mmHg 61%
    16:00 +17°C° 0.2 mm 9 mps 755 mmHg 64%
    17:00 +16°C° 0.2 mm 9 mps 755 mmHg 66%
    18:00 +16°C° 0.2 mm 8 mps 755 mmHg 66%
    19:00 +16°C° 0.2 mm 8 mps 755 mmHg 66%
    20:00 +16°C° 0.2 mm 8 mps 756 mmHg 66%
    21:00 +16°C° 0.4 mm 8 mps 756 mmHg 68%
    22:00 +16°C° 0.4 mm 7 mps 756 mmHg 69%
    23:00 +16°C° 0.4 mm 7 mps 756 mmHg 71%

    22 November, Wednesday

    Time Temperature Precipitation Wind Pressure Humidity
    00:00 +15°C° 0.5 mm 7 mps 756 mmHg 71%
    01:00 +15°C° 0.5 mm 7 mps 756 mmHg 71%
    02:00 +15°C° 0.5 mm 7 mps 756 mmHg 71%
    03:00 +15°C° 0.4 mm 7 mps 756 mmHg 70%
    04:00 +16°C° 0.4 mm 7 mps 756 mmHg 70%
    05:00 +16°C° 0.4 mm 7 mps 756 mmHg 69%
    06:00 +16°C° 0.1 mm 7 mps 756 mmHg 67%
    07:00 +16°C° 0.1 mm 7 mps 757 mmHg 64%
    08:00 +17°C° 0.1 mm 7 mps 757 mmHg 61%
    09:00 +17°C° 0.1 mm 7 mps 757 mmHg 58%
    10:00 +18°C° 0.1 mm 7 mps 757 mmHg 54%
    11:00 +18°C° 0.1 mm 7 mps 758 mmHg 51%
    12:00 +18°C° 0 mm 7 mps 757 mmHg 51%
    13:00 +18°C° 0 mm 7 mps 757 mmHg 51%
    14:00 +18°C° 0 mm 7 mps 757 mmHg 51%
    15:00 +19°C° 0 mm 6 mps 757 mmHg 53%
    16:00 +17°C° 0 mm 6 mps 758 mmHg 56%
    17:00 +16°C° 0 mm 5 mps 758 mmHg 58%
    18:00 +16°C° 0 mm 5 mps 758 mmHg 59%
    19:00 +17°C° 0 mm 4 mps 758 mmHg 60%
    20:00 +17°C° 0 mm 4 mps 759 mmHg 60%
    21:00 +17°C° 0 mm 4 mps 759 mmHg 60%
    22:00 +16°C° 0 mm 3 mps 759 mmHg 60%
    23:00 +16°C° 0 mm 3 mps 759 mmHg 60%

    23 November, Thursday

    Time Temperature Precipitation Wind Pressure Humidity
    00:00 +16°C° 0 mm 3 mps 759 mmHg 61%
    01:00 +16°C° 0 mm 3 mps 759 mmHg 61%
    02:00 +15°C° 0 mm 2 mps 759 mmHg 61%
    03:00 +15°C° 0 mm 2 mps 759 mmHg 62%
    04:00 +15°C° 0 mm 2 mps 759 mmHg 62%
    05:00 +15°C° 0 mm 2 mps 759 mmHg 62%
    06:00 +15°C° 0 mm 2 mps 760 mmHg 62%
    07:00 +15°C° 0 mm 2 mps 760 mmHg 62%
    08:00 +16°C° 0 mm 1 mps 760 mmHg 61%
    09:00 +18°C° 0 mm 1 mps 760 mmHg 57%
    10:00 +19°C° 0 mm 1 mps 760 mmHg 53%
    11:00 +20°C° 0 mm 1 mps 760 mmHg 49%
    12:00 +19°C° 0 mm 2 mps 760 mmHg 47%
    13:00 +19°C° 0 mm 2 mps 760 mmHg 46%
    14:00 +20°C° 0 mm 3 mps 759 mmHg 44%
    15:00 +19°C° 0 mm 3 mps 759 mmHg 47%
    16:00 +18°C° 0 mm 3 mps 759 mmHg 49%
    17:00 +18°C° 0 mm 3 mps 760 mmHg 51%
    18:00 +17°C° 0 mm 3 mps 760 mmHg 52%
    19:00 +17°C° 0 mm 3 mps 760 mmHg 53%
    20:00 +16°C° 0 mm 3 mps 760 mmHg 54%
    21:00 +16°C° 0 mm 3 mps 760 mmHg 55%
    22:00 +16°C° 0 mm 2 mps 760 mmHg 56%
    23:00 +16°C° 0 mm 2 mps 760 mmHg 56%

    24 November, Friday

    Time Temperature Precipitation Wind Pressure Humidity
    00:00 +15°C° 0 mm 2 mps 760 mmHg 57%
    01:00 +15°C° 0 mm 2 mps 760 mmHg 58%
    02:00 +15°C° 0 mm 2 mps 760 mmHg 58%
    03:00 +15°C° 0 mm 2 mps 760 mmHg 59%
    04:00 +15°C° 0 mm 2 mps 760 mmHg 59%
    05:00 +14°C° 0 mm 2 mps 760 mmHg 60%
    06:00 +15°C° 0 mm 2 mps 761 mmHg 58%
    07:00 +16°C° 0 mm 2 mps 761 mmHg 57%
    08:00 +16°C° 0 mm 2 mps 761 mmHg 55%
    09:00 +18°C° 0 mm 1 mps 761 mmHg 51%
    10:00 +19°C° 0 mm 1 mps 761 mmHg 46%
    11:00 +20°C° 0 mm 1 mps 761 mmHg 42%
    12:00 +21°C° 0 mm 1 mps 761 mmHg 42%
    13:00 +20°C° 0 mm 2 mps 761 mmHg 41%
    14:00 +20°C° 0 mm 2 mps 760 mmHg 40%
    15:00 +20°C° 0 mm 2 mps 761 mmHg 44%
    16:00 +19°C° 0 mm 3 mps 761 mmHg 47%
    17:00 +18°C° 0 mm 3 mps 761 mmHg 51%
    18:00 +18°C° 0 mm 3 mps 761 mmHg 53%
    19:00 +17°C° 0 mm 3 mps 762 mmHg 55%
    20:00 +17°C° 0 mm 3 mps 762 mmHg 57%
    21:00 +17°C° 0 mm 3 mps 762 mmHg 57%
    22:00 +17°C° 0 mm 3 mps 762 mmHg 58%
    23:00 +16°C° 0 mm 3 mps 762 mmHg 58%
    Show more